User: anonymous   Login
Location: Unspecified
(0.0000°N, 0.0000°E)
Time: 04:09:55
(UTC+00:00)
Language:

ADEOS II - Orbit

View from above orbital plane
View from above orbital plane
View from above satellite
View from above satellite

Ground track
Ground track

The orbit data is extracted from the following two-line orbital elements,

1 27597U 02056A   18343.94901068  .00000025  00000-0  27421-4 0  9996
2 27597  98.4465 297.8564 0001412 128.6227 231.5081 14.27376656832566
Epoch (UTC): 09 December 2018 22:46:34
Eccentricity: 0.0001412
inclination: 98.4465°
perigee height: 799 km
apogee height: 801 km
right ascension of ascending node: 297.8564°
argument of perigee: 128.6227°
revolutions per day: 14.27376656
mean anomaly at epoch: 231.5081°
orbit number at epoch: 83256

The dashed part of the orbit path shows where the satellite is in the earth's shadow,  

DLR